Location: College Park
(38.9810°N, 76.9370°W)
Time: 14:39:16

N. Korean satellite - Pass Details

Date: 12 January 2018
Orbit: 460 x 512 km, 97.2° (Epoch: 18 March)

Event Time Altitude Azimuth Distance (km) Brightness Sun altitude
Rises 18:56:47 0° 202° (SSW) 2,594 10.7 -21.0°
Reaches altitude 10° 18:59:23 10° 221° (SW) 1,707 10.0 -21.5°
Maximum altitude 19:01:57 18° 266° (W) 1,282 9.6 -22.0°
Drops below altitude 10° 19:04:30 10° 310° (NW) 1,697 9.8 -22.4°
Sets 19:07:06 0° 330° (NNW) 2,573 10.5 -22.9°
